TDRS 5

Last updated on Sat Feb 08 2025 00:02:35 GMT+0000 (Coordinated Universal Time)

1 21639U 91054B 25038.31450100 -.00000306 00000+0 00000+0 0 9990 2 21639 14.1308 357.3956 0005196 298.1299 253.1225 1.00269362122755
UTC large
Height (km)
Speed (km/s)
/
Latitude / Longitude
Inclination (degrees)
Orbital Period (minutes)
Azimuth
Elevation
Range (km)
Doppler Factor

Next 0 passes for location: London (51.5072 / 0.1276)

Sorry there are no passes over London.